Terminal Aerodrome Forecast
Issued by NWS

Home | Current Version | Previous Version | Text Only | Print | Product List | Glossary On
Versions: 1 2 3 4 5 6 7 8 9 10 11 12 13 14 15 16 17 18 19 20 21 22 23 24 25
000
FTUS44 KOUN 170520
TAFPNC
TAF
KPNC 170520Z 1706/1806 14008KT P6SM FEW030
      TEMPO 1710/1714 4SM BR BKN030
     FM171600 20008G14KT P6SM SKC=

USA.gov is the U.S. government's official web portal to all federal, state and local government web resources and services.